Date String (YYYY-MM-DD hh:mm:ss) UTC,Instrument flags,absolute air pressure of the measurement (hPa),sample flow rate (lpm),inlet stack bypass flow (lpm),air temperature of the measurement (°C),ambient temperature measured by the external sensor (°C),aerosol sample conditioner tube jacket temperature (°C),OPC LED temperature (°C),internal box temperature (°C),relative humidity of the measurement (%),span deviation,mass concentration of particles derived from Lorenz-Mie calculation of OPC scattering (μg/m³),mass concentration of particles derived from Lorenz-Mie calculation of OPC scattering (μg/m³),mass concentration of particles derived from Lorenz-Mie calculation of OPC scattering (μg/m³)
DateTimeUTC,F1_M11,P_M11,Q1_M11,Q2_M11,T1_M11,T2_M11,T3_M11,T4_M11,T5_M11,U1_M11,ZSPAN_M11,X0_M11,X2_M11,X1_M11
2023-08-30 00:00:00,SystemResetWarning,0836.1,5.00,000.00,027.9,026.6,000.0,036.2,029.7,27.0,0000.0,0009.81,0004.62,0004.15
2023-08-30 00:01:00,SystemResetWarning,0836.1,4.98,000.00,027.9,025.8,000.0,036.1,029.5,27.1,0000.0,0010.47,0004.58,0004.15
2023-08-30 00:02:00,SystemResetWarning,0836.1,5.01,000.00,027.8,024.3,000.0,036.0,029.2,27.3,0000.0,0010.51,0004.58,0004.15
2023-08-30 00:03:00,SystemResetWarning,0836.1,5.00,000.00,027.8,023.9,000.0,035.9,029.1,27.5,0000.0,0010.86,0004.60,0004.15
2023-08-30 00:04:00,SystemResetWarning,0836.1,5.01,000.00,027.7,024.2,000.0,035.9,029.0,27.4,0000.0,0011.10,0004.57,0004.13
2023-08-30 00:05:00,SystemResetWarning,0836.1,5.00,000.00,027.6,024.6,000.0,036.0,029.1,27.7,0000.0,0011.20,0004.55,0004.10
2023-08-30 00:06:00,SystemResetWarning,0836.1,4.99,000.00,027.7,025.1,000.0,036.0,029.3,27.8,0000.0,0011.67,0004.57,0004.10
2023-08-30 00:07:00,SystemResetWarning,0836.1,5.01,000.00,027.7,025.5,000.0,036.0,029.4,27.8,0000.0,0011.11,0004.55,0004.09
2023-08-30 00:08:00,SystemResetWarning,0836.1,5.00,000.00,027.8,026.0,000.0,036.1,029.5,27.3,0000.0,0010.82,0004.56,0004.08
2023-08-30 00:09:00,SystemResetWarning,0836.1,5.00,000.00,027.8,026.3,000.0,036.1,029.6,26.8,0000.0,0010.87,0004.57,0004.08
2023-08-30 00:10:00,SystemResetWarning,0836.1,5.00,000.00,027.9,026.6,000.0,036.1,029.7,26.9,0000.0,0010.81,0004.58,0004.08
2023-08-30 00:11:00,SystemResetWarning,0836.0,4.99,000.00,027.9,026.6,000.0,036.1,029.8,27.4,0000.1,0010.84,0004.58,0004.08
2023-08-30 00:12:00,SystemResetWarning,0836.0,4.98,000.00,027.9,025.3,000.0,036.0,029.5,27.6,0000.3,0010.19,0004.56,0004.08
2023-08-30 00:13:00,SystemResetWarning,0835.9,5.00,000.00,027.8,024.0,000.0,036.0,029.3,27.7,-000.2,0010.38,0004.58,0004.08
2023-08-30 00:14:00,SystemResetWarning,0836.0,5.00,000.00,027.8,024.0,000.0,035.9,029.2,27.3,-000.5,0010.29,0004.57,0004.09
2023-08-30 00:15:00,SystemResetWarning,0835.9,5.01,000.00,027.7,024.3,000.0,036.0,029.2,27.0,0000.0,0009.97,0004.57,0004.08
2023-08-30 00:16:00,SystemResetWarning,0835.9,5.00,000.00,027.7,024.8,000.0,036.0,029.3,27.2,-000.0,0009.69,0004.56,0004.09
2023-08-30 00:17:00,SystemResetWarning,0835.9,5.00,000.00,027.7,025.3,000.0,036.0,029.4,27.3,0000.6,0009.32,0004.57,0004.10
2023-08-30 00:18:00,SystemResetWarning,0836.0,5.00,000.00,027.8,025.7,000.0,036.1,029.5,27.7,0001.8,0008.98,0004.54,0004.08
2023-08-30 00:19:00,SystemResetWarning,0836.0,5.00,000.00,027.8,026.1,000.0,036.1,029.6,28.0,0001.6,0008.99,0004.53,0004.09
2023-08-30 00:20:00,SystemResetWarning,0836.0,5.01,000.00,027.9,026.5,000.0,036.1,029.7,27.4,0000.8,0009.28,0004.54,0004.09
2023-08-30 00:21:00,SystemResetWarning,0836.0,5.00,000.00,027.9,026.7,000.0,036.2,029.8,26.7,0000.9,0009.98,0004.53,0004.09
2023-08-30 00:22:00,SystemResetWarning,0836.0,4.98,000.00,028.0,026.4,000.0,036.2,029.7,26.6,0001.0,0010.11,0004.52,0004.08
2023-08-30 00:23:00,SystemResetWarning,0835.9,5.00,000.00,027.9,024.8,000.0,036.1,029.4,26.5,0000.8,0010.66,0004.54,0004.07
2023-08-30 00:24:00,SystemResetWarning,0835.9,5.00,000.00,027.8,024.0,000.0,036.0,029.1,26.7,0000.7,0010.54,0004.53,0004.07
2023-08-30 00:25:00,SystemResetWarning,0835.9,5.01,000.00,027.8,024.1,000.0,036.0,029.1,27.1,0001.0,0010.49,0004.51,0004.07
2023-08-30 00:26:00,SystemResetWarning,0835.9,4.99,000.00,027.7,024.5,000.0,036.0,029.1,27.2,0000.1,0010.40,0004.49,0004.06
2023-08-30 00:27:00,SystemResetWarning,0835.9,5.00,000.00,027.7,025.0,000.0,036.0,029.3,27.1,0001.3,0010.33,0004.50,0004.05
2023-08-30 00:28:00,SystemResetWarning,0836.0,5.00,000.00,027.8,025.5,000.0,036.1,029.4,27.4,0001.5,0010.45,0004.49,0004.05
2023-08-30 00:29:00,SystemResetWarning,0836.0,5.00,000.00,027.8,025.9,000.0,036.1,029.5,27.2,0001.0,0010.61,0004.51,0004.07
2023-08-30 00:30:00,SystemResetWarning,0835.9,5.00,000.00,027.8,026.2,000.0,036.1,029.6,27.9,0000.3,0011.13,0004.51,0004.08
2023-08-30 00:31:00,SystemResetWarning,0836.0,5.00,000.00,027.9,026.6,000.0,036.2,029.7,27.9,0000.9,0011.27,0004.54,0004.09
2023-08-30 00:32:00,SystemResetWarning,0835.9,4.99,000.00,028.0,026.4,000.0,036.2,029.7,27.2,0001.0,0010.44,0004.55,0004.09
2023-08-30 00:33:00,SystemResetWarning,0835.9,4.99,000.00,027.9,024.9,000.0,036.1,029.4,27.3,0000.6,0010.28,0004.55,0004.10
2023-08-30 00:34:00,SystemResetWarning,0835.9,5.00,000.00,027.8,024.0,000.0,036.0,029.2,27.8,-000.0,0009.71,0004.55,0004.11
2023-08-30 00:35:00,SystemResetWarning,0835.9,5.00,000.00,027.8,024.0,000.0,035.9,029.1,27.5,0000.0,0009.69,0004.57,0004.12
2023-08-30 00:36:00,SystemResetWarning,0835.9,5.00,000.00,027.7,024.4,000.0,036.0,029.1,27.9,0000.0,0010.02,0004.60,0004.14
2023-08-30 00:37:00,SystemResetWarning,0835.9,5.01,000.00,027.7,024.9,000.0,036.0,029.3,27.9,0000.0,0010.08,0004.66,0004.16
2023-08-30 00:38:00,SystemResetWarning,0835.9,5.00,000.00,027.7,025.3,000.0,036.1,029.4,27.9,0000.0,0010.19,0004.68,0004.17
2023-08-30 00:39:00,SystemResetWarning,0835.9,5.01,000.00,027.8,025.8,000.0,036.1,029.5,28.0,0000.0,0010.83,0004.69,0004.18
2023-08-30 00:40:00,SystemResetWarning,0835.9,5.00,000.00,027.8,026.2,000.0,036.1,029.6,28.1,0000.0,0011.78,0004.69,0004.18
2023-08-30 00:41:00,SystemResetWarning,0835.9,5.00,000.00,027.9,026.5,000.0,036.1,029.7,27.8,0000.0,0011.57,0004.72,0004.18
2023-08-30 00:42:00,SystemResetWarning,0835.9,5.00,000.00,028.0,026.7,000.0,036.2,029.8,27.6,0000.0,0012.00,0004.71,0004.18
2023-08-30 00:43:00,SystemResetWarning,0835.9,4.99,000.00,028.0,026.0,000.0,036.1,029.7,27.6,0000.0,0012.06,0004.72,0004.18
2023-08-30 00:44:00,SystemResetWarning,0835.8,5.00,000.00,027.9,024.5,000.0,036.0,029.4,28.2,0000.0,0013.28,0004.78,0004.19
2023-08-30 00:45:00,SystemResetWarning,0835.8,5.01,000.00,027.8,023.9,000.0,035.9,029.2,28.1,0000.0,0013.44,0004.81,0004.19
2023-08-30 00:46:00,SystemResetWarning,0835.8,5.01,000.00,027.8,024.1,000.0,036.0,029.1,28.9,0000.0,0013.44,0004.80,0004.19
2023-08-30 00:47:00,SystemResetWarning,0835.8,5.00,000.00,027.7,024.5,000.0,036.0,029.1,28.9,0000.0,0013.53,0004.78,0004.19
2023-08-30 00:48:00,SystemResetWarning,0835.8,4.99,000.00,027.7,025.0,000.0,036.0,029.3,28.7,0000.0,0013.80,0004.79,0004.20
2023-08-30 00:49:00,SystemResetWarning,0835.8,5.00,000.00,027.8,025.5,000.0,036.1,029.4,28.9,0000.0,0013.94,0004.80,0004.21
2023-08-30 00:50:00,SystemResetWarning,0835.9,5.01,000.00,027.8,025.9,000.0,036.1,029.6,28.6,0000.4,0013.24,0004.82,0004.21
2023-08-30 00:51:00,SystemResetWarning,0835.9,5.00,000.00,027.9,026.3,000.0,036.1,029.7,28.3,0000.0,0012.09,0004.84,0004.22
2023-08-30 00:52:00,SystemResetWarning,0835.9,5.00,000.00,027.9,026.6,000.0,036.2,029.8,28.3,0000.0,0011.67,0004.82,0004.22
2023-08-30 00:53:00,SystemResetWarning,0835.9,4.99,000.00,028.0,026.7,000.0,036.2,029.8,27.8,0000.1,0010.93,0004.81,0004.23
2023-08-30 00:54:00,SystemResetWarning,0835.9,4.99,000.00,028.0,025.5,000.0,036.1,029.5,27.9,0001.5,0011.21,0004.80,0004.21
2023-08-30 00:55:00,SystemResetWarning,0835.8,5.01,000.00,027.9,024.2,000.0,036.0,029.1,28.0,0000.8,0010.03,0004.76,0004.20
2023-08-30 00:56:00,SystemResetWarning,0835.8,5.01,000.00,027.8,024.0,000.0,036.0,029.1,28.3,0001.4,0009.83,0004.72,0004.20
2023-08-30 00:57:00,SystemResetWarning,0835.8,5.01,000.00,027.7,024.2,000.0,036.0,029.0,28.7,0000.0,0010.04,0004.69,0004.19
2023-08-30 00:58:00,SystemResetWarning,0835.8,4.99,000.00,027.7,024.7,000.0,036.0,029.2,28.5,0000.0,0010.27,0004.72,0004.18
2023-08-30 00:59:00,SystemResetWarning,0835.9,5.00,000.00,027.7,025.2,000.0,036.0,029.3,27.9,0000.1,0010.22,0004.70,0004.18
